Weather reports worldwide

Advertisment
Villanueva De Cordoba, Spain (8346): temperature & dewpoint: 17.05.2019 14:00:00 - 23.05.2019 14:00:00 (CEST)Villanueva De Cordoba, Spain (8346): wind speed & gusts: 17.05.2019 14:00:00 - 23.05.2019 14:00:00 (CEST)Villanueva De Cordoba, Spain (8346): wind direction: 17.05.2019 14:00:00 - 23.05.2019 14:00:00 (CEST)Villanueva De Cordoba, Spain (8346): reduced air pressure: 17.05.2019 14:00:00 - 23.05.2019 14:00:00 (CEST)Villanueva De Cordoba, Spain (8346): visibility: 17.05.2019 14:00:00 - 23.05.2019 14:00:00 (CEST)Villanueva De Cordoba, Spain (8346): sunshine duration: 17.05.2019 14:00:00 - 23.05.2019 14:00:00 (CEST)Villanueva De Cordoba, Spain (8346): precipitation: 17.05.2019 14:00:00 - 23.05.2019 14:00:00 (CEST)
Date & Time tt [°C] td [°C] ff [km/h] ff [kn] fx [km/h] fx [kn] dd ppp [hPa] vv [km] sd [min] rr [mm]
23.05.2019 14:00:00 - - - - - - - - - - -
23.05.2019 13:00:00 27,2 4,8 7 4 23 13 S 1014,9 20 55 0,0
23.05.2019 12:00:00 25,8 6,4 7 4 17 9 SW 1015,5 20 60 0,0
23.05.2019 11:00:00 23,7 6,4 3 2 13 7 WNW 1016,1 20 60 0,0
23.05.2019 10:00:00 21,1 7,7 4 2 11 6 NNE 1016,9 20 60 0,0
23.05.2019 09:00:00 17,5 7,8 5 3 11 6 NNW 1017,6 20 60 0,0
23.05.2019 08:00:00 13,8 6,8 3 2 8 4 SW 1018,6 20 19 -
23.05.2019 07:00:00 13,1 6,8 7 4 13 7 S 1018,5 20 0 0,0
23.05.2019 06:00:00 13,7 6,1 7 4 15 8 S 1018,3 20 0 0,0
23.05.2019 05:00:00 14,3 4,8 8 4 13 7 S 1018,0 20 0 0,0
23.05.2019 04:00:00 15,4 3,6 6 4 16 8 S 1017,5 20 0 0,0
23.05.2019 03:00:00 16,3 3,0 8 4 13 7 S 1017,5 20 0 0,0
23.05.2019 02:00:00 17,7 2,9 8 4 19 10 SW 1017,3 20 0 -
23.05.2019 01:00:00 18,9 2,7 9 5 15 8 SW 1016,9 20 0 0,0
23.05.2019 00:00:00 18,9 2,7 8 4 18 10 SW 1016,8 20 0 0,0
22.05.2019 23:00:00 19,9 2,3 10 5 21 11 SSW 1016,3 20 0 0,0
22.05.2019 22:00:00 21,4 1,7 8 4 16 9 SSW 1015,3 20 4 0,0
22.05.2019 21:00:00 24,9 1,7 9 5 19 10 SSW 1014,0 20 39 0,0
22.05.2019 20:00:00 24,8 1,1 5 3 17 9 SE 1013,7 20 0 -
22.05.2019 19:00:00 26,1 1,3 8 4 16 9 SSW 1013,3 20 2 0,0
22.05.2019 18:00:00 27,6 1,9 8 4 22 12 WSW 1013,0 20 49 0,0
22.05.2019 17:00:00 27,5 1,9 9 5 23 13 SSE 1013,2 20 53 0,0
22.05.2019 16:00:00 27,3 2,3 11 6 31 17 SSW 1013,4 20 42 0,0
22.05.2019 15:00:00 25,6 1,7 8 5 23 12 SE 1014,4 20 34 0,0
22.05.2019 14:00:00 26,8 2,7 8 4 24 13 S 1014,4 20 55 -
22.05.2019 13:00:00 26,2 2,1 8 4 22 12 S 1014,8 20 60 0,0
22.05.2019 12:00:00 24,4 3,6 6 4 19 11 S 1015,3 20 60 0,0
22.05.2019 11:00:00 22,8 3,8 7 4 17 9 SSE 1015,6 20 60 0,0
22.05.2019 10:00:00 21,0 4,5 5 3 12 7 SSE 1015,9 20 60 0,0
22.05.2019 09:00:00 17,3 6,2 3 2 9 5 S 1016,5 20 60 0,0
22.05.2019 08:00:00 13,2 5,8 1 1 8 5 S 1017,4 20 24 -
22.05.2019 07:00:00 12,2 4,6 7 4 10 5 NW 1017,2 20 0 0,0
22.05.2019 06:00:00 12,2 6,4 6 3 11 6 S 1017,1 20 0 0,0
22.05.2019 05:00:00 13,7 4,3 6 4 12 7 S 1016,7 20 0 0,0
22.05.2019 04:00:00 15,9 0,4 8 4 13 7 NW 1016,1 20 0 0,0
22.05.2019 03:00:00 15,8 0,0 6 3 10 5 WNW 1016,0 20 0 0,0
22.05.2019 02:00:00 15,2 0,6 5 3 10 5 W 1016,3 20 0 -
22.05.2019 01:00:00 16,0 0,4 3 2 8 4 N 1016,0 20 0 0,0
22.05.2019 00:00:00 17,5 0,2 5 3 16 9 NNW 1015,6 20 0 0,0
21.05.2019 23:00:00 18,2 0,4 6 4 12 7 N 1015,0 20 0 0,0
21.05.2019 22:00:00 19,6 0,6 5 3 16 9 NNW 1013,9 20 9 0,0
21.05.2019 21:00:00 22,6 0,4 8 5 22 12 N 1012,4 20 58 0,0
21.05.2019 20:00:00 24,2 -0,3 8 4 25 13 NW 1011,1 20 59 -
21.05.2019 19:00:00 24,5 0,0 15 8 29 15 W 1011,0 20 46 0,0
21.05.2019 18:00:00 23,0 0,6 9 5 23 12 WNW 1011,6 17 25 0,0
21.05.2019 17:00:00 23,1 0,9 14 7 29 16 WNW 1011,8 20 28 0,0
21.05.2019 16:00:00 25,1 1,9 9 5 28 15 SW 1011,4 20 44 0,0
21.05.2019 15:00:00 23,2 2,7 9 5 34 18 NW 1012,0 20 50 0,0
21.05.2019 14:00:00 22,3 2,5 9 5 26 14 NW 1012,7 20 50 -
21.05.2019 13:00:00 21,6 2,9 8 4 27 15 NNW 1013,0 20 60 0,0
21.05.2019 12:00:00 21,1 2,9 10 5 19 10 WSW 1013,4 20 60 0,0
21.05.2019 11:00:00 19,0 2,9 10 5 16 9 WNW 1013,9 20 60 0,0
21.05.2019 10:00:00 16,6 4,3 8 4 18 10 NW 1014,4 9 60 0,0
21.05.2019 09:00:00 14,3 4,8 8 4 16 9 NW 1014,8 20 60 0,0
21.05.2019 08:00:00 11,6 4,8 10 5 18 10 NW 1015,2 20 23 -
21.05.2019 07:00:00 11,1 4,3 10 6 17 9 NW 1015,0 20 0 0,0
21.05.2019 06:00:00 12,0 3,8 7 4 13 7 NW 1014,4 20 0 0,0
21.05.2019 05:00:00 13,2 3,2 8 4 18 10 NW 1014,1 20 0 0,0
21.05.2019 04:00:00 13,9 3,4 9 5 18 10 WNW 1013,8 20 0 0,0
21.05.2019 03:00:00 14,7 2,9 9 5 24 13 WNW 1013,7 20 0 0,0
21.05.2019 02:00:00 15,2 0,9 9 5 19 11 WNW 1014,0 20 0 -
21.05.2019 01:00:00 15,1 -1,4 6 3 8 4 W 1014,0 20 0 0,0
21.05.2019 00:00:00 16,2 -1,4 6 3 9 5 NNW 1013,5 20 0 0,0
20.05.2019 23:00:00 16,4 -1,7 6 3 11 6 N 1013,1 20 0 0,0
20.05.2019 22:00:00 18,1 -1,7 6 4 24 13 N 1011,8 20 0 0,0
20.05.2019 21:00:00 20,5 -2,5 11 6 25 14 NNW 1010,5 20 1 0,0
20.05.2019 20:00:00 22,4 -2,5 10 6 30 16 NNW 1009,5 20 42 -
20.05.2019 19:00:00 23,5 -2,2 11 6 36 19 NNW 1009,2 20 39 0,0
20.05.2019 18:00:00 23,5 -2,2 5 3 36 19 WNW 1009,2 20 52 0,0
20.05.2019 17:00:00 22,7 -0,7 11 6 27 15 SSW 1009,7 20 48 0,0
20.05.2019 16:00:00 22,6 2,1 13 7 34 18 SSW 1010,3 20 25 0,0
20.05.2019 15:00:00 20,9 2,7 11 6 27 15 WSW 1011,1 20 6 0,0
20.05.2019 14:00:00 21,3 2,5 10 6 29 15 SSW 1011,5 20 15 -
20.05.2019 13:00:00 20,1 3,2 12 6 23 13 WSW 1011,8 20 43 0,0
20.05.2019 12:00:00 18,1 2,9 14 8 35 19 W 1012,4 20 40 0,0
20.05.2019 11:00:00 18,7 4,5 10 6 22 12 SW 1012,2 20 60 0,0
20.05.2019 10:00:00 16,2 3,9 7 4 14 8 SSW 1012,9 20 60 0,0
20.05.2019 09:00:00 12,7 3,9 9 5 14 8 S 1013,4 20 60 0,0
20.05.2019 08:00:00 9,1 3,0 5 3 9 5 S 1014,2 20 19 -
20.05.2019 07:00:00 9,7 2,9 5 3 12 6 W 1013,6 20 0 0,0
20.05.2019 06:00:00 10,5 2,9 7 4 14 7 WNW 1013,4 20 0 0,0
20.05.2019 05:00:00 10,9 2,7 8 4 13 7 WNW 1013,5 20 0 0,0
20.05.2019 04:00:00 11,5 2,5 7 4 11 6 WNW 1013,5 20 0 0,0
20.05.2019 03:00:00 12,1 1,9 7 4 13 7 WNW 1013,6 20 0 0,0
20.05.2019 02:00:00 12,7 1,7 7 4 19 10 NNW 1013,7 20 0 -
20.05.2019 01:00:00 13,9 0,9 11 6 23 12 W 1013,6 20 0 0,0
20.05.2019 00:00:00 14,6 -1,4 8 4 16 9 WNW 1013,2 20 0 0,0
19.05.2019 23:00:00 14,8 -1,4 9 5 16 8 W 1012,9 20 0 0,0
19.05.2019 22:00:00 15,8 -1,7 8 4 20 11 W 1012,0 20 0 0,0
19.05.2019 21:00:00 17,5 -1,7 9 5 25 13 WNW 1011,1 20 3 0,0
19.05.2019 20:00:00 18,7 -1,7 20 11 35 19 W 1010,3 20 42 -
19.05.2019 19:00:00 19,2 -2,5 17 9 42 23 WNW 1010,2 20 58 0,0
19.05.2019 18:00:00 20,3 -2,2 18 10 40 21 WNW 1009,8 20 60 0,0
19.05.2019 17:00:00 20,0 -3,0 16 9 45 24 NW 1010,3 20 60 0,0
19.05.2019 16:00:00 19,6 -2,7 18 10 41 22 NW 1010,9 20 60 0,0
19.05.2019 15:00:00 18,6 -3,0 21 11 41 22 NNW 1011,4 20 60 0,0
19.05.2019 14:00:00 18,0 -0,7 16 8 55 30 NW 1011,7 20 60 -
19.05.2019 13:00:00 16,8 -0,5 12 7 34 18 NNW 1012,1 20 60 0,0
19.05.2019 12:00:00 15,4 -0,5 13 7 28 15 NW 1012,8 20 60 0,0
19.05.2019 11:00:00 13,8 2,1 11 6 27 15 NNW 1013,2 20 60 0,0
19.05.2019 10:00:00 11,9 2,3 10 5 19 10 WNW 1013,7 20 60 0,0
19.05.2019 09:00:00 9,7 2,5 11 6 20 11 NW 1014,2 20 60 0,0
19.05.2019 08:00:00 7,8 2,1 6 3 15 8 WNW 1014,6 20 22 -
19.05.2019 07:00:00 7,8 1,7 5 3 13 7 NW 1014,2 20 0 0,0
19.05.2019 06:00:00 8,7 1,7 8 4 19 11 NW 1013,6 20 0 0,0
19.05.2019 05:00:00 9,4 1,1 8 5 26 14 NNW 1013,5 20 0 0,0
19.05.2019 04:00:00 9,8 0,6 10 5 29 16 NW 1013,5 20 0 0,0
19.05.2019 03:00:00 10,6 -0,3 14 8 26 14 WNW 1013,5 20 0 0,0
19.05.2019 02:00:00 11,1 -1,0 11 6 23 12 WNW 1013,8 20 0 -
19.05.2019 01:00:00 11,3 -2,2 10 5 18 10 WNW 1014,2 20 0 0,0
19.05.2019 00:00:00 11,6 -3,0 8 4 15 8 WNW 1014,2 20 0 0,0
18.05.2019 23:00:00 12,1 -4,5 5 3 12 6 WNW 1013,8 20 0 0,0
18.05.2019 22:00:00 13,0 -4,8 6 3 29 15 NW 1013,1 20 0 0,0
18.05.2019 21:00:00 15,1 -6,0 10 5 37 20 NW 1012,2 20 36 0,0
18.05.2019 20:00:00 17,0 -6,0 16 9 39 21 NW 1011,2 20 60 -
18.05.2019 19:00:00 17,5 -6,4 20 11 48 26 WNW 1010,6 20 60 0,0
18.05.2019 18:00:00 17,4 -7,1 24 13 51 27 NW 1010,4 20 60 0,0
18.05.2019 17:00:00 17,3 -6,7 21 11 54 29 WNW 1010,3 20 60 0,0
18.05.2019 16:00:00 17,0 -6,0 23 12 57 31 NW 1010,7 20 60 0,0
18.05.2019 15:00:00 16,6 -5,4 22 12 44 24 WNW 1010,9 20 60 0,0
18.05.2019 14:00:00 16,1 -4,5 16 9 50 27 NW 1011,3 20 60 -
18.05.2019 13:00:00 14,6 -3,3 16 9 36 19 NW 1011,9 20 60 0,0
18.05.2019 12:00:00 13,8 -1,7 21 11 36 20 WNW 1012,2 20 60 0,0
18.05.2019 11:00:00 11,9 0,6 18 10 37 20 NW 1012,3 20 60 0,0
18.05.2019 10:00:00 10,4 2,1 16 9 34 18 WNW 1012,8 20 60 0,0
18.05.2019 09:00:00 8,7 2,3 15 8 29 16 NW 1013,1 20 57 0,0
18.05.2019 08:00:00 7,1 1,9 5 3 19 10 WNW 1013,2 20 4 -
18.05.2019 07:00:00 7,1 1,7 6 4 17 9 NW 1013,2 20 0 0,0
18.05.2019 06:00:00 7,9 1,7 9 5 17 9 NW 1012,7 20 0 0,0
18.05.2019 05:00:00 8,7 1,9 7 4 22 12 WNW 1012,1 20 0 0,0
18.05.2019 04:00:00 9,2 1,3 10 5 20 11 NW 1012,9 20 0 0,0
18.05.2019 03:00:00 9,8 1,3 11 6 31 17 WNW 1013,2 20 0 0,0
18.05.2019 02:00:00 10,7 1,1 16 9 29 16 WNW 1013,3 20 0 -
18.05.2019 01:00:00 11,0 0,2 9 5 19 11 W 1013,5 20 0 0,0
18.05.2019 00:00:00 11,7 -0,7 10 6 18 10 W 1013,3 20 0 0,0
17.05.2019 23:00:00 12,4 -2,0 6 3 23 12 W 1013,2 20 0 0,0
17.05.2019 22:00:00 13,3 -2,0 11 6 24 13 W 1012,2 20 5 0,0
17.05.2019 21:00:00 15,4 -1,7 14 7 41 22 WNW 1011,5 20 57 0,0
17.05.2019 20:00:00 16,5 -2,5 17 9 35 19 WNW 1010,9 20 60 -
17.05.2019 19:00:00 17,3 -2,5 22 12 42 23 WNW 1010,8 20 60 0,0
17.05.2019 18:00:00 17,5 -1,2 15 8 37 20 NW 1010,8 20 60 0,0
17.05.2019 17:00:00 16,5 -0,3 16 9 39 21 NW 1011,7 20 49 0,0
17.05.2019 16:00:00 15,4 -0,5 17 9 41 22 NW 1012,0 20 2 0,0
17.05.2019 15:00:00 16,2 -0,5 18 10 43 23 NNW 1011,9 20 11 0,0
17.05.2019 14:00:00 15,3 -0,5 15 8 42 23 NW 1012,4 20 7 -

tt = temperature
td = dewpoint
ff = wind speed
fx = gusts
dd = wind direction
ppp = reduced air pressure
vv = visibility
sd = sunshine duration
rr = precipitation

Next stations